Home   Weather   Markham   Past weeks

Flag for Canada Past Weather in Markham, Ontario, Canada — Yesterday and Last 2 Weeks

Now
52 °F

Broken clouds.


Feels Like: 47 °F
Forecast: 42 / 54 °F
Wind: 14 mph from Northwest

Location: Toronto Buttonville

Current Time: Apr 29, 2017 at 3:59:47 pm

Latest Report: Apr 29, 2017 at 3:00 pm


Visibility: 15 mi

Pressure: 30.18 "Hg

Humidity: 54%

Dew Point: 36 °F

Location of MarkhamLocation

Past Weather in Markham — Graph

°F

Markham Temperature Yesterday

Maximum temperature yesterday: 63 °F (at 4:00 pm)
Minimum temperature yesterday: 48 °F (at 6:00 am)
Average temperature yesterday: 56 °F

High & Low Weather Summary for the Past Weeks

 TemperatureHumidityPressure
High77 °F (Apr 27, 4:00 pm)100% (Apr 15, 1:29 pm)30.47 "Hg (Apr 15, 1:29 pm)
Low30 °F (Apr 18, 5:00 am)19% (Apr 14, 7:00 pm)29.52 "Hg (Apr 27, 5:00 pm)
Average50 °F71%30.00 "Hg
* Reported Apr 14 2:00 pm — Apr 29 2:00 pm, Markham, Weather by CustomWeather, © 2017

Note: Actual official high and low records may vary slightly from our data, if they occured in-between our weather recording intervals... More about our weather records

Advertising

Markham Weather History for the Previous 24 Hours

Scroll right to see more
 ConditionsComfort  
Time TempWeatherWind HumidityBarometerVisibility
2:00 pm
Sat, Apr 29
52 °FBroken clouds.13 mph54%30.15 "Hg15 mi
1:00 pm52 °FBroken clouds.14 mph62%30.11 "Hg15 mi
12:00 pm50 °FBroken clouds.12 mph58%30.13 "Hg15 mi
11:00 am46 °FPartly sunny.14 mph62%30.11 "Hg15 mi
10:00 am45 °FOvercast.16 mph61%30.12 "Hg15 mi
9:00 am45 °FOvercast.15 mph57%30.10 "Hg15 mi
8:00 am43 °FPartly sunny.12 mph66%30.07 "Hg15 mi
7:00 am43 °FPartly sunny.14 mph66%30.05 "Hg15 mi
6:00 am43 °FPassing clouds.12 mph71%30.01 "Hg15 mi
5:00 am45 °FPassing clouds.12 mph76%29.99 "Hg15 mi
4:00 am52 °FClear.16 mph72%29.96 "Hg15 mi
3:00 am55 °FClear.6 mph67%29.95 "Hg15 mi
2:00 am57 °FOvercast.9 mph63%29.97 "Hg15 mi
1:00 am57 °FOvercast.8 mph63%29.96 "Hg15 mi
12:00 am59 °FOvercast.7 mph59%29.97 "Hg15 mi
11:00 pm
Fri, Apr 28
59 °FOvercast.8 mph55%29.95 "Hg15 mi
10:00 pm61 °FOvercast.6 mph48%29.96 "Hg15 mi
9:00 pm61 °FOvercast.5 mph48%29.97 "Hg15 mi
8:00 pm61 °FPartly sunny.6 mph45%29.96 "Hg15 mi
7:00 pm63 °FBroken clouds.10 mph39%29.98 "Hg15 mi
6:00 pm63 °FPartly sunny.13 mph45%29.99 "Hg15 mi
5:00 pm63 °FBroken clouds.16 mph52%29.98 "Hg15 mi
4:00 pm63 °FPassing clouds.12 mph56%29.97 "Hg15 mi
3:00 pm61 °FScattered clouds.16 mph55%29.97 "Hg15 mi
Weather by CustomWeather, © 2017

See weather overviewHow to use our weather pages